Time,TemperatureF,DewpointF,PressureIn,WindDirection,WindDirectionDegrees,WindSpeedMPH,WindSpeedGustMPH,Humidity,HourlyPrecipIn,Conditions,Clouds,dailyrainin,SoftwareType,DateUTC
2013-01-28 00:05:00,40.6,35.0,30.14,NW,311,0.0,-999.0,79,-99.99,,,0.00,weatherlink.com 1.10,2013-01-28 08:05:00,
2013-01-28 00:20:00,40.5,34.0,30.14,NW,311,0.0,-999.0,79,-99.99,,,0.00,weatherlink.com 1.10,2013-01-28 08:20:00,
2013-01-28 00:35:00,39.6,34.0,30.14,NW,311,0.0,-999.0,79,-99.99,,,0.00,weatherlink.com 1.10,2013-01-28 08:35:00,
2013-01-28 00:50:00,39.6,34.0,30.15,NW,311,0.0,-999.0,81,-99.99,,,0.00,weatherlink.com 1.10,2013-01-28 08:50:00,
2013-01-28 01:06:00,39.6,34.0,30.15,NW,311,0.0,-999.0,81,-99.99,,,0.00,weatherlink.com 1.10,2013-01-28 09:06:00,
2013-01-28 01:20:00,39.5,34.0,30.14,NW,311,0.0,-999.0,81,-99.99,,,0.00,weatherlink.com 1.10,2013-01-28 09:20:00,
2013-01-28 01:35:00,39.2,34.0,30.15,NW,311,0.0,-999.0,81,-99.99,,,0.00,weatherlink.com 1.10,2013-01-28 09:35:00,
2013-01-28 01:50:00,38.9,34.0,30.15,NW,311,0.0,-999.0,81,-99.99,,,0.00,weatherlink.com 1.10,2013-01-28 09:50:00,
2013-01-28 02:05:00,38.5,33.0,30.15,NW,311,0.0,-999.0,82,-99.99,,,0.00,weatherlink.com 1.10,2013-01-28 10:05:00,
2013-01-28 02:20:00,38.0,33.0,30.15,NW,311,0.0,-999.0,82,-99.99,,,0.00,weatherlink.com 1.10,2013-01-28 10:20:00,
2013-01-28 02:36:00,37.9,34.0,30.15,NW,311,1.0,-999.0,84,-99.99,,,0.00,weatherlink.com 1.10,2013-01-28 10:36:00,
2013-01-28 02:51:00,38.0,34.0,30.14,NW,311,0.0,-999.0,84,-99.99,,,0.00,weatherlink.com 1.10,2013-01-28 10:51:00,
2013-01-28 03:06:00,38.0,34.0,30.15,NW,311,1.0,-999.0,84,-99.99,,,0.00,weatherlink.com 1.10,2013-01-28 11:06:00,
2013-01-28 03:21:00,38.3,34.0,30.15,NW,311,1.0,-999.0,84,-99.99,,,0.00,weatherlink.com 1.10,2013-01-28 11:21:00,
2013-01-28 03:36:00,39.1,35.0,30.14,NW,323,2.0,-999.0,84,-99.99,,,0.00,weatherlink.com 1.10,2013-01-28 11:36:00,
2013-01-28 03:51:00,40.2,35.0,30.14,NW,314,2.0,-999.0,82,-99.99,,,0.00,weatherlink.com 1.10,2013-01-28 11:51:00,
2013-01-28 04:06:00,40.9,35.0,30.14,NW,316,0.0,-999.0,79,-99.99,,,0.00,weatherlink.com 1.10,2013-01-28 12:06:00,
2013-01-28 04:21:00,41.1,35.0,30.14,NW,306,2.0,-999.0,78,-99.99,,,0.00,weatherlink.com 1.10,2013-01-28 12:21:00,
2013-01-28 04:36:00,41.1,34.0,30.14,NNE,20,2.0,-999.0,77,-99.99,,,0.00,weatherlink.com 1.10,2013-01-28 12:36:00,
2013-01-28 04:51:00,41.2,34.0,30.14,North,5,2.0,-999.0,76,-99.99,,,0.00,weatherlink.com 1.10,2013-01-28 12:51:00,
2013-01-28 05:06:00,41.1,34.0,30.13,NNW,342,1.0,-999.0,76,-99.99,,,0.00,weatherlink.com 1.10,2013-01-28 13:06:00,
2013-01-28 05:21:00,40.8,34.0,30.13,NW,309,1.0,-999.0,77,-99.99,,,0.00,weatherlink.com 1.10,2013-01-28 13:21:00,
2013-01-28 05:36:00,40.6,34.0,30.13,NW,323,0.0,-999.0,77,-99.99,,,0.00,weatherlink.com 1.10,2013-01-28 13:36:00,
2013-01-28 05:51:00,40.2,34.0,30.14,NW,323,0.0,-999.0,77,-99.99,,,0.00,weatherlink.com 1.10,2013-01-28 13:51:00,
2013-01-28 06:06:00,39.6,33.0,30.14,NW,323,0.0,-999.0,78,-99.99,,,0.00,weatherlink.com 1.10,2013-01-28 14:06:00,
2013-01-28 06:21:00,38.5,33.0,30.14,NW,323,0.0,-999.0,79,-99.99,,,0.00,weatherlink.com 1.10,2013-01-28 14:21:00,
2013-01-28 06:36:00,37.5,32.0,30.15,NW,323,0.0,-999.0,81,-99.99,,,0.00,weatherlink.com 1.10,2013-01-28 14:36:00,
2013-01-28 06:51:00,37.2,33.0,30.16,NW,323,0.0,-999.0,83,-99.99,,,0.00,weatherlink.com 1.10,2013-01-28 14:51:00,
2013-01-28 07:06:00,37.0,33.0,30.16,NW,323,0.0,-999.0,84,-99.99,,,0.00,weatherlink.com 1.10,2013-01-28 15:06:00,
2013-01-28 07:21:00,36.5,32.0,30.17,NW,323,0.0,-999.0,84,-99.99,,,0.00,weatherlink.com 1.10,2013-01-28 15:21:00,
2013-01-28 07:36:00,36.2,32.0,30.17,NW,323,0.0,-999.0,85,-99.99,,,0.00,weatherlink.com 1.10,2013-01-28 15:36:00,
2013-01-28 07:51:00,36.3,33.0,30.18,NW,323,0.0,-999.0,87,-99.99,,,0.00,weatherlink.com 1.10,2013-01-28 15:51:00,
2013-01-28 08:06:00,37.3,34.0,30.19,NW,323,0.0,-999.0,88,-99.99,,,0.00,weatherlink.com 1.10,2013-01-28 16:06:00,
2013-01-28 08:21:00,38.9,36.0,30.19,NW,323,0.0,-999.0,88,-99.99,,,0.00,weatherlink.com 1.10,2013-01-28 16:21:00,
2013-01-28 08:36:00,40.6,37.0,30.19,NW,323,1.0,-999.0,86,-99.99,,,0.00,weatherlink.com 1.10,2013-01-28 16:36:00,
2013-01-28 08:51:00,42.2,37.0,30.19,NW,323,0.0,-999.0,83,-99.99,,,0.00,weatherlink.com 1.10,2013-01-28 16:51:00,
2013-01-28 09:21:00,44.5,37.0,30.18,NW,323,0.0,-999.0,75,-99.99,,,0.00,weatherlink.com 1.10,2013-01-28 17:21:00,
2013-01-28 09:36:00,45.5,37.0,30.19,NW,312,2.0,-999.0,73,-99.99,,,0.00,weatherlink.com 1.10,2013-01-28 17:36:00,
2013-01-28 09:51:00,47.1,38.0,30.19,NW,311,0.0,-999.0,71,-99.99,,,0.00,weatherlink.com 1.10,2013-01-28 17:51:00,
2013-01-28 10:07:00,48.3,39.0,30.20,NW,311,0.0,-999.0,70,-99.99,,,0.00,weatherlink.com 1.10,2013-01-28 18:07:00,
2013-01-28 10:22:00,49.6,39.0,30.21,NE,35,3.0,-999.0,66,-99.99,,,0.00,weatherlink.com 1.10,2013-01-28 18:22:00,
2013-01-28 10:37:00,51.0,40.0,30.21,NE,44,4.0,-999.0,65,-99.99,,,0.00,weatherlink.com 1.10,2013-01-28 18:37:00,
2013-01-28 10:52:00,52.2,39.0,30.21,North,360,4.0,-999.0,61,-99.99,,,0.00,weatherlink.com 1.10,2013-01-28 18:52:00,
2013-01-28 11:06:00,53.1,38.0,30.21,NNW,335,0.0,-999.0,58,-99.99,,,0.00,weatherlink.com 1.10,2013-01-28 19:06:00,
2013-01-28 11:21:00,53.9,39.0,30.21,North,360,4.0,-999.0,57,-99.99,,,0.00,weatherlink.com 1.10,2013-01-28 19:21:00,
2013-01-28 11:36:00,54.4,39.0,30.21,North,5,0.0,-999.0,56,-99.99,,,0.00,weatherlink.com 1.10,2013-01-28 19:36:00,
2013-01-28 11:51:00,55.0,39.0,30.20,NNW,336,2.0,-999.0,56,-99.99,,,0.00,weatherlink.com 1.10,2013-01-28 19:51:00,
2013-01-28 12:07:00,55.9,39.0,30.20,North,5,3.0,-999.0,53,-99.99,,,0.00,weatherlink.com 1.10,2013-01-28 20:07:00,
2013-01-28 12:22:00,56.5,39.0,30.20,NE,50,2.0,-999.0,52,-99.99,,,0.00,weatherlink.com 1.10,2013-01-28 20:22:00,
2013-01-28 12:37:00,56.9,39.0,30.20,ENE,59,1.0,-999.0,51,-99.99,,,0.00,weatherlink.com 1.10,2013-01-28 20:37:00,
2013-01-28 12:52:00,58.1,38.0,30.19,NNW,332,3.0,-999.0,48,-99.99,,,0.00,weatherlink.com 1.10,2013-01-28 20:52:00,
2013-01-28 13:06:00,58.7,37.0,30.18,NNE,17,3.0,-999.0,45,-99.99,,,0.00,weatherlink.com 1.10,2013-01-28 21:06:00,
2013-01-28 13:21:00,59.3,37.0,30.18,NE,43,0.0,-999.0,44,-99.99,,,0.00,weatherlink.com 1.10,2013-01-28 21:21:00,
2013-01-28 13:36:00,59.6,37.0,30.18,NNE,15,1.0,-999.0,43,-99.99,,,0.00,weatherlink.com 1.10,2013-01-28 21:36:00,
2013-01-28 13:51:00,60.1,36.0,30.18,North,350,1.0,-999.0,41,-99.99,,,0.00,weatherlink.com 1.10,2013-01-28 21:51:00,
2013-01-28 14:07:00,60.4,36.0,30.17,NNE,17,1.0,-999.0,41,-99.99,,,0.00,weatherlink.com 1.10,2013-01-28 22:07:00,
2013-01-28 14:22:00,60.7,37.0,30.17,North,9,0.0,-999.0,41,-99.99,,,0.00,weatherlink.com 1.10,2013-01-28 22:22:00,
2013-01-28 14:37:00,60.7,37.0,30.17,NW,319,1.0,-999.0,41,-99.99,,,0.00,weatherlink.com 1.10,2013-01-28 22:37:00,
2013-01-28 14:52:00,60.4,38.0,30.17,NW,322,2.0,-999.0,43,-99.99,,,0.00,weatherlink.com 1.10,2013-01-28 22:52:00,
2013-01-28 15:07:00,59.8,38.0,30.17,NW,321,2.0,-999.0,44,-99.99,,,0.00,weatherlink.com 1.10,2013-01-28 23:07:00,
2013-01-28 15:22:00,59.6,39.0,30.17,WNW,289,0.0,-999.0,46,-99.99,,,0.00,weatherlink.com 1.10,2013-01-28 23:22:00,
2013-01-28 15:37:00,59.2,38.0,30.18,WNW,300,2.0,-999.0,46,-99.99,,,0.00,weatherlink.com 1.10,2013-01-28 23:37:00,
2013-01-28 15:52:00,58.4,38.0,30.18,NW,311,0.0,-999.0,47,-99.99,,,0.00,weatherlink.com 1.10,2013-01-28 23:52:00,
2013-01-28 16:07:00,57.6,38.0,30.18,NW,317,1.0,-999.0,48,-99.99,,,0.00,weatherlink.com 1.10,2013-01-29 00:07:00,
2013-01-28 16:22:00,56.7,38.0,30.18,NW,318,6.0,-999.0,50,-99.99,,,0.00,weatherlink.com 1.10,2013-01-29 00:22:00,
2013-01-28 16:37:00,55.7,38.0,30.18,WNW,297,0.0,-999.0,51,-99.99,,,0.00,weatherlink.com 1.10,2013-01-29 00:37:00,
2013-01-28 16:52:00,55.0,38.0,30.19,WNW,298,2.0,-999.0,53,-99.99,,,0.00,weatherlink.com 1.10,2013-01-29 00:52:00,
2013-01-28 17:07:00,54.1,39.0,30.19,WNW,298,0.0,-999.0,56,-99.99,,,0.00,weatherlink.com 1.10,2013-01-29 01:07:00,
2013-01-28 17:22:00,52.8,39.0,30.20,WNW,298,1.0,-999.0,60,-99.99,,,0.00,weatherlink.com 1.10,2013-01-29 01:22:00,
2013-01-28 17:37:00,51.1,39.0,30.20,WNW,298,3.0,-999.0,64,-99.99,,,0.00,weatherlink.com 1.10,2013-01-29 01:37:00,
2013-01-28 17:52:00,49.2,39.0,30.21,WNW,298,0.0,-999.0,67,-99.99,,,0.00,weatherlink.com 1.10,2013-01-29 01:52:00,
2013-01-28 18:07:00,47.9,38.0,30.22,WNW,298,0.0,-999.0,69,-99.99,,,0.00,weatherlink.com 1.10,2013-01-29 02:07:00,
2013-01-28 18:22:00,46.4,38.0,30.22,WNW,298,0.0,-999.0,73,-99.99,,,0.00,weatherlink.com 1.10,2013-01-29 02:22:00,
2013-01-28 18:37:00,45.5,38.0,30.22,WNW,298,0.0,-999.0,74,-99.99,,,0.00,weatherlink.com 1.10,2013-01-29 02:37:00,
2013-01-28 18:52:00,44.9,38.0,30.23,WNW,298,0.0,-999.0,76,-99.99,,,0.00,weatherlink.com 1.10,2013-01-29 02:52:00,
2013-01-28 19:07:00,44.6,38.0,30.23,WNW,298,0.0,-999.0,77,-99.99,,,0.00,weatherlink.com 1.10,2013-01-29 03:07:00,
2013-01-28 19:22:00,45.1,38.0,30.23,WNW,298,2.0,-999.0,76,-99.99,,,0.00,weatherlink.com 1.10,2013-01-29 03:22:00,
2013-01-28 19:37:00,45.7,38.0,30.23,WNW,298,0.0,-999.0,75,-99.99,,,0.00,weatherlink.com 1.10,2013-01-29 03:37:00,
2013-01-28 19:52:00,45.7,38.0,30.23,WNW,298,0.0,-999.0,75,-99.99,,,0.00,weatherlink.com 1.10,2013-01-29 03:52:00,
2013-01-28 20:07:00,45.8,38.0,30.23,WNW,298,0.0,-999.0,75,-99.99,,,0.00,weatherlink.com 1.10,2013-01-29 04:07:00,
2013-01-28 20:22:00,45.7,38.0,30.24,WNW,298,2.0,-999.0,75,-99.99,,,0.00,weatherlink.com 1.10,2013-01-29 04:22:00,
2013-01-28 20:37:00,45.5,38.0,30.25,WNW,298,0.0,-999.0,75,-99.99,,,0.00,weatherlink.com 1.10,2013-01-29 04:37:00,
2013-01-28 20:52:00,45.2,38.0,30.25,WNW,298,0.0,-999.0,76,-99.99,,,0.00,weatherlink.com 1.10,2013-01-29 04:52:00,
2013-01-28 21:07:00,44.9,38.0,30.25,NW,305,0.0,-999.0,76,-99.99,,,0.00,weatherlink.com 1.10,2013-01-29 05:07:00,
2013-01-28 21:22:00,44.8,38.0,30.24,NW,316,0.0,-999.0,77,-99.99,,,0.00,weatherlink.com 1.10,2013-01-29 05:22:00,
2013-01-28 21:37:00,44.6,37.0,30.25,NW,316,0.0,-999.0,76,-99.99,,,0.00,weatherlink.com 1.10,2013-01-29 05:37:00,
2013-01-28 21:52:00,44.2,37.0,30.25,NW,316,0.0,-999.0,77,-99.99,,,0.00,weatherlink.com 1.10,2013-01-29 05:52:00,
2013-01-28 22:07:00,43.9,37.0,30.25,NW,316,3.0,-999.0,78,-99.99,,,0.00,weatherlink.com 1.10,2013-01-29 06:07:00,
2013-01-28 22:22:00,43.3,37.0,30.25,NW,316,0.0,-999.0,79,-99.99,,,0.00,weatherlink.com 1.10,2013-01-29 06:22:00,
2013-01-28 22:37:00,42.6,37.0,30.25,NW,316,1.0,-999.0,79,-99.99,,,0.00,weatherlink.com 1.10,2013-01-29 06:37:00,
2013-01-28 22:52:00,41.5,36.0,30.25,NW,316,1.0,-999.0,80,-99.99,,,0.00,weatherlink.com 1.10,2013-01-29 06:52:00,
2013-01-28 23:07:00,40.5,35.0,30.25,NW,316,1.0,-999.0,82,-99.99,,,0.00,weatherlink.com 1.10,2013-01-29 07:07:00,
2013-01-28 23:22:00,40.3,36.0,30.25,NW,316,0.0,-999.0,84,-99.99,,,0.00,weatherlink.com 1.10,2013-01-29 07:22:00,
2013-01-28 23:37:00,40.3,36.0,30.25,NW,316,0.0,-999.0,85,-99.99,,,0.00,weatherlink.com 1.10,2013-01-29 07:37:00,
2013-01-28 23:52:00,40.5,36.0,30.25,NW,316,0.0,-999.0,85,-99.99,,,0.00,weatherlink.com 1.10,2013-01-29 07:52:00,